Tracking 19831 objects as of 23-Aug-2019
HD Live streaming from Space Station
objects crossing your sky now

COSMOS 1720

Track COSMOS 1720 now!
10-day predictions
COSMOS 1720 is classified as:


NORAD ID: 16453
Int'l Code: 1986-002E
Perigee: 1,447.6 km
Apogee: 1,490.8 km
Inclination: 74.0 °
Period: 115.1 minutes
Semi major axis: 7840 km
RCS: 0.701 m2 (medium)
Launch date: January 9, 1986
Source: Commonwealth of Independent States (former USSR) (CIS)
Launch site: PLESETSK MISSILE AND SPACE COMPLEX (PKMTR)
aabbcc
Your satellite tracking list
Your tracking list is empty




NASA's NSSDC Master Catalog

Two Line Element Set (TLE):
1 16453U 86002E   19235.81438052 -.00000015  00000-0  72299-5 0  9997
2 16453  73.9920 343.8071 0027557  63.1117  98.4945 12.50591964535073
Source of the keplerian elements: AFSPC